Location: Brunsen
(51.8651°N, 9.8610°E)
Time: 11:56:03
(UTC+00:00)

Geosat - Pass Details

Date: 23 May 2024
Orbit: 760 x 763 km, 108.1° (Epoch: 18 June)

Event Time Altitude Azimuth Distance (km) Brightness Sun altitude
Rises 02:24:51 0° 153° (SSE) 3,213 7.0 -6.8°
Reaches altitude 10° 02:27:08 10° 155° (SSE) 2,291 6.3 -6.5°
Maximum altitude 02:32:07 74° 240° (WSW) 797 4.0 -6.0°
Drops below altitude 10° 02:37:09 10° 326° (NW) 2,309 6.6 -5.4°
Sets 02:39:27 0° 328° (NNW) 3,239 7.4 -5.2°
